Vertical_Velocity
-1 -0 -1 -1 -2 -1 -0 2 -2 0 -1 -1 -0 -2 -2 -1 -1 -2 -1 -1 -1 -3 -0 -3 2 0 -4 1 -2 2 -1 -0 -2 -2 0 -2 -0 1 0 1 0 1 1
0 -2 -0 -0 -0 -0 -1 -1 -0 1 -1 -1 -1 -1 -1 -0 -2 -1 -0 0 0 -1 1 1 2 -0 -0 -1 -3 2 -2 3 -1 0 1 0 1 -0 -0 1 1 1 0
-1 -0 1 -1 1 -0 0 0 -1 1 0 -1 0 -0 -1 -1 -2 -0 -0 0 -0 -2 -0 -1 0 1 1 1 -1 2 0 2 1 4 -0 1 1 1 -0 -0 -0 1 0
-2 1 0 -1 0 -2 1 2 1 2 1 -0 -1 -0 -1 1 1 1 -0 0 0 1 0 1 1 1 1 2 -0 -1 -2 2 0 -0 -2 -2 0 -1 -1 -2 -2 -1 -1
-0 -1 1 -2 -0 1 0 2 1 0 -0 -2 -2 -0 -1 -0 -0 1 1 1 0 0 -1 -0 2 2 2 2 1 0 -0 0 1 -0 -1 1 -0 1 -2 -2 -1 0 0
0 1 0 -0 -0 0 2 0 -1 1 0 -2 -1 -1 -1 -1 -0 -0 1 0 2 2 2 0 1 0 1 1 0 0 1 -0 -1 -0 -1 0 1 -2 -2 -1 0 0 -0
1 1 -0 0 -1 1 0 -0 -2 -0 2 1 -0 -3 4 1 1 0 -2 0 -2 -0 -2 -3 -2 -1 -2 0 0 -1 1 0 -2 -1 -1 1 -1 -3 4 3 1 2 2
1 -0 1 -0 0 -0 -0 -0 -1 1 3 0 0 2 4 -2 -1 -1 -4 -4 -4 -2 -6 -5 -4 -5 -5 -3 -3 -2 -2 -3 -2 -2 -1 -1 -2 -0 -2 -1 -0 1 1
-1 -0 -0 -1 -1 0 1 0 0 -0 -0 1 0 -3 -1 4 3 13 2 -2 -2 0 -2 -4 -6 -5 -2 -1 -3 -3 -4 -3 -3 -3 -2 -3 -1 -0 1 2 -0 -0 -1
-1 -0 0 0 1 -0 -0 -0 -0 1 0 -0 -1 -3 -4 -3 -3 7 19 12 1 3 1 6 -1 0 -2 -2 -2 -2 0 -0 -2 -1 -1 -0 -0 -2 -4 -1 -3 2 1
0 -1 -0 1 1 -0 -0 -2 -0 -1 -1 -1 -0 1 -2 -3 -8 -10 4 18 12 0 -7 -5 1 1 3 -1 -3 -2 -1 -2 -0 1 2 0 -1 -1 -2 -4 -4 -4 -4
-0 -0 1 0 0 1 -1 -1 -1 -1 -2 -2 -2 -2 -1 -2 3 -12 -11 -7 -8 22 21 14 6 3 0 0 1 -1 -3 -3 -3 -5 -3 -2 0 -0 -4 -6 -4 -4 -6
0 1 0 -0 0 -1 -1 -0 -1 -1 -1 -0 -1 -1 -3 -3 -4 -4 -9 -7 -22 5 -1 8 17 12 8 5 3 -2 -1 -5 -6 -6 -3 -2 -0 -1 -1 -3 -1 -2 -5
2 1 0 -1 0 -0 -0 -1 -1 0 -1 0 -0 0 0 -6 -1 -6 -9 -15 -2 -3 -6 -1 3 1 0 -1 -0 0 3 6 3 -2 -7 -9 -8 -7 -6 -7 -4 -2 -3
2 0 0 0 -1 -1 -0 -0 -1 -0 0 -1 -3 -2 -1 -2 -1 -3 -3 -5 -18 -32 8 25 -5 -2 -3 -5 -3 -7 -6 1 -3 -3 1 8 3 1 -4 -3 -3 -1 -1
0 -0 -1 -1 -1 -0 0 1 -0 -0 0 -3 -2 1 -2 -4 -0 -1 -2 -1 -2 -16 -44 -11 5 -6 -0 3 2 -3 -3 -10 -3 -5 -3 -2 -6 -8 -1 2 1 1 2
0 0 -0 -0 0 -2 -0 -0 -0 0 -1 0 -2 -2 -1 -3 1 -2 -3 -2 -2 -7 -24 15 -12 -1 -3 -12 -3 -2 -4 -1 -1 1 1 -7 -5 -3 -4 -0 0 1 1
1 0 -1 0 -1 -1 -2 -0 1 -1 -1 1 -0 -0 -0 -1 -1 -4 -3 -1 -3 1 -11 -29 5 -2 4 5 -0 -3 -1 1 -1 1 -9 -4 -1 -4 -1 -3 -3 1 3
-0 -0 -1 -0 -1 -1 -2 -2 -0 1 1 -2 -1 -1 -2 -3 1 -1 0 0 -4 -1 2 -12 -16 1 -3 -2 -2 3 3 1 2 -8 -4 -3 -12 -2 1 -1 0 2 2
1 -0 0 0 -1 -1 -0 -1 0 1 -1 -0 -1 -4 -3 -2 -4 -2 -2 2 1 -6 -7 -7 -4 -9 -9 6 -2 -6 5 -6 -2 -8 -3 -7 -0 1 3 -1 2 1 1
-0 0 -2 -1 1 0 -1 1 -0 2 0 -1 -2 -2 -2 -1 -2 -2 -10 -3 -2 -3 -5 -5 -6 -4 -2 -0 -3 0 0 -1 -3 -6 8 -7 2 3 -3 -2 -3 -2 -2
-1 -1 1 -1 -2 -2 -0 -1 -4 -0 -2 -3 -1 1 -2 -2 -1 -2 0 -0 0 -14 -7 -6 -1 -2 4 -4 2 -3 -6 -3 18 -29 4 6 -4 0 -1 -2 -2 -1 -0
-1 -0 -0 0 -2 1 -0 -1 -1 -1 -1 -2 -2 -4 0 -2 -6 -5 -1 4 6 1 -8 -11 -5 -6 -1 -5 0 4 1 -3 -4 -6 5 11 -6 3 -4 1 -5 -2 4
0 -1 -3 -1 2 -3 1 -1 -2 -3 -2 -2 2 -4 -6 -4 -2 -7 1 5 4 -1 -1 2 -1 3 -1 1 -3 -5 2 4 -4 -8 -5 5 -4 2 2 -6 -1 2 2
-2 -1 1 1 1 -2 -2 -2 -0 -0 1 2 3 -3 -5 3 2 -3 -9 -4 2 -1 -2 -5 -6 -5 -3 -3 -5 4 -1 -2 10 -5 -3 -4 -6 9 -9 2 -0 6 2
-1 2 -2 -2 -4 1 -2 -0 -2 2 3 -2 0 -1 -3 -3 -3 -4 -5 -2 2 -1 3 -1 -5 -6 -5 -3 -3 -7 -1 1 -1 14 -10 1 1 0 7 1 4 -1 1
Height
5800 5799 5798 5797 5795 5793 5791 5790 5788 5786 5785 5784 5782 5781 5779 5776 5773 5770 5768 5766 5763 5761 5760 5758 5757 5755 5753 5752 5751 5750 5749 5749 5747 5747 5747 5746 5746 5746 5745 5746 5746 5747 5747
5794 5793 5792 5791 5789 5787 5786 5785 5783 5781 5779 5778 5776 5774 5771 5769 5766 5763 5760 5758 5756 5754 5753 5751 5750 5748 5746 5744 5741 5740 5739 5738 5736 5736 5735 5735 5734 5734 5734 5734 5734 5734 5735
5788 5787 5787 5785 5784 5782 5781 5780 5778 5775 5773 5770 5768 5765 5762 5760 5757 5755 5753 5750 5748 5746 5744 5742 5740 5738 5736 5734 5732 5731 5729 5727 5725 5724 5722 5721 5721 5721 5721 5721 5720 5721 5721
5782 5781 5780 5779 5777 5777 5776 5774 5771 5769 5767 5763 5759 5757 5754 5751 5748 5745 5743 5741 5739 5737 5734 5732 5729 5727 5724 5722 5720 5718 5716 5715 5712 5710 5708 5707 5707 5706 5704 5704 5704 5704 5705
5776 5775 5774 5773 5771 5770 5769 5767 5764 5761 5759 5755 5752 5748 5745 5741 5738 5736 5734 5731 5729 5726 5723 5721 5718 5715 5712 5709 5706 5703 5701 5699 5696 5694 5692 5691 5689 5688 5686 5685 5685 5685 5686
5769 5768 5767 5765 5763 5762 5762 5760 5757 5754 5751 5747 5742 5738 5735 5733 5730 5728 5725 5722 5718 5715 5712 5708 5704 5701 5698 5694 5690 5687 5684 5681 5679 5676 5674 5673 5671 5669 5668 5667 5666 5666 5665
5762 5762 5760 5758 5757 5755 5754 5751 5748 5745 5742 5738 5734 5729 5727 5725 5722 5719 5714 5711 5706 5702 5697 5693 5689 5685 5681 5677 5673 5669 5666 5662 5659 5656 5654 5652 5650 5648 5647 5646 5646 5646 5645
5755 5754 5753 5751 5750 5748 5745 5742 5738 5735 5732 5728 5725 5723 5720 5715 5710 5707 5703 5699 5694 5689 5683 5677 5673 5668 5663 5659 5654 5650 5646 5642 5639 5636 5634 5631 5628 5627 5625 5624 5622 5622 5622
5748 5747 5746 5744 5742 5738 5736 5733 5729 5725 5720 5717 5714 5711 5709 5708 5705 5702 5694 5686 5680 5675 5669 5663 5657 5651 5645 5640 5636 5632 5628 5624 5619 5615 5612 5608 5605 5602 5600 5598 5596 5596 5595
5741 5740 5738 5736 5733 5729 5726 5722 5718 5714 5710 5706 5702 5698 5694 5690 5688 5689 5687 5679 5672 5665 5658 5650 5642 5635 5628 5623 5618 5613 5609 5603 5597 5592 5587 5583 5579 5575 5571 5568 5565 5565 5564
5733 5731 5729 5727 5724 5720 5716 5712 5707 5702 5698 5694 5690 5686 5681 5675 5668 5664 5664 5662 5657 5647 5640 5634 5627 5619 5611 5605 5599 5593 5587 5581 5574 5568 5562 5555 5549 5543 5539 5535 5532 5531 5530
5725 5723 5720 5717 5713 5710 5705 5700 5695 5691 5686 5682 5677 5672 5666 5661 5656 5649 5645 5641 5637 5634 5624 5616 5608 5600 5591 5584 5577 5570 5562 5555 5548 5540 5532 5524 5516 5510 5504 5500 5497 5494 5491
5716 5713 5711 5707 5703 5699 5694 5689 5684 5680 5675 5669 5664 5657 5651 5644 5637 5630 5624 5621 5618 5614 5605 5597 5587 5578 5568 5560 5551 5541 5532 5521 5512 5503 5494 5485 5476 5467 5461 5457 5453 5450 5448
5707 5704 5700 5697 5693 5688 5683 5679 5674 5668 5663 5657 5651 5644 5637 5629 5620 5612 5603 5597 5596 5592 5585 5573 5564 5552 5540 5528 5517 5505 5495 5484 5474 5463 5452 5441 5431 5421 5414 5407 5402 5398 5396
5697 5694 5690 5687 5682 5677 5673 5668 5662 5657 5651 5644 5637 5629 5621 5612 5603 5593 5583 5574 5565 5563 5568 5552 5539 5527 5512 5497 5483 5468 5454 5440 5426 5412 5401 5391 5380 5371 5363 5358 5355 5354 5355
5688 5684 5681 5676 5671 5667 5662 5656 5651 5644 5638 5630 5622 5614 5605 5595 5585 5575 5566 5556 5544 5534 5532 5530 5518 5496 5480 5461 5445 5427 5411 5393 5380 5364 5352 5342 5332 5326 5321 5320 5319 5319 5320
5678 5675 5671 5666 5661 5655 5650 5644 5638 5631 5624 5615 5606 5598 5587 5577 5568 5558 5547 5536 5525 5510 5500 5512 5487 5472 5453 5426 5412 5390 5368 5353 5342 5332 5320 5310 5299 5291 5286 5285 5284 5286 5289
5669 5665 5660 5655 5650 5644 5638 5632 5625 5617 5609 5600 5591 5582 5572 5562 5552 5540 5529 5517 5503 5486 5467 5459 5458 5436 5414 5394 5376 5361 5346 5331 5317 5307 5297 5287 5278 5271 5265 5260 5258 5260 5263
5660 5655 5650 5645 5639 5633 5626 5619 5611 5603 5593 5584 5575 5565 5556 5545 5534 5522 5508 5493 5477 5460 5438 5416 5410 5395 5380 5360 5349 5339 5327 5317 5305 5293 5283 5275 5266 5258 5254 5249 5246 5246 5246
5650 5645 5640 5634 5627 5620 5613 5605 5597 5588 5579 5568 5559 5550 5539 5527 5514 5500 5486 5468 5447 5427 5408 5388 5373 5360 5347 5337 5327 5321 5316 5304 5295 5281 5275 5267 5256 5249 5244 5239 5237 5235 5234
5640 5634 5628 5622 5615 5607 5599 5591 5583 5573 5564 5555 5544 5533 5520 5507 5493 5477 5459 5440 5417 5397 5381 5367 5354 5340 5329 5323 5316 5310 5301 5294 5284 5272 5268 5260 5249 5243 5235 5230 5226 5225 5224
5629 5623 5617 5610 5602 5594 5586 5577 5567 5559 5549 5539 5529 5516 5502 5487 5472 5455 5435 5412 5389 5369 5359 5349 5340 5330 5322 5314 5308 5300 5293 5285 5280 5265 5260 5254 5240 5235 5226 5222 5217 5215 5214
5618 5612 5605 5598 5590 5581 5572 5562 5553 5544 5534 5523 5511 5497 5483 5465 5446 5429 5412 5393 5376 5357 5343 5337 5330 5322 5314 5306 5300 5293 5285 5277 5268 5259 5252 5247 5233 5227 5218 5212 5206 5204 5203
5607 5600 5593 5585 5577 5568 5559 5549 5540 5530 5518 5506 5491 5476 5460 5444 5423 5404 5390 5378 5361 5347 5338 5330 5321 5314 5306 5299 5291 5284 5278 5274 5264 5252 5244 5239 5228 5222 5212 5203 5198 5195 5193
5596 5588 5581 5572 5564 5555 5546 5536 5527 5516 5503 5489 5473 5453 5436 5420 5401 5384 5371 5360 5349 5339 5330 5322 5313 5306 5299 5292 5284 5280 5275 5267 5262 5249 5240 5231 5222 5216 5204 5197 5194 5190 5188
5584 5576 5567 5560 5551 5542 5532 5522 5511 5498 5487 5471 5453 5433 5414 5395 5378 5366 5355 5347 5339 5332 5325 5317 5309 5302 5294 5288 5280 5273 5266 5261 5255 5249 5237 5229 5219 5209 5202 5193 5188 5186 5185